[[{"header":{"parameterUnit":"m.s-1","parameterCategory":1,"la1":30.2991,"la2":30.254,"lo1":-89.0895,"lo2":-89.0444,"dy":0.0017,"dx":0.0017,"nx":28,"ny":28,"refTime":"2023-11-13T09:00:00:Z","depth":0,"parameterNumber":2,"parameterNumberName":"U-component_of_WINDS"},"data":[0,0,0,0,0,0,0,0,0,0,0,0,0,0,0,0,0,0,0,0,0,0,0,0,0,0,0,0,0,0,0,0,0,0,0,0,0,0,0,0,0,0,0,0,0,0,0,0,0,0,0,0,0,0,0,0,0,0,-4.1121,-4.1122,0,-4.115,-4.1151,-4.1151,-4.101,-4.1006,-4.1002,-4.0998,-4.1032,-4.1036,-4.1041,0,0,0,0,0,0,0,0,0,0,0,0,0,-4.0947,-4.0951,-4.1121,-4.1122,-4.1122,-4.115,-4.1151,-4.1151,-4.1011,-4.1006,-4.1001,-4.0996,-4.103,-4.1036,-4.1041,0,0,0,0,0,0,0,0,0,0,0,0,0,-4.1004,-4.0952,-4.1121,-4.1055,-4.105,-4.115,-4.1151,-4.1151,-4.1012,-4.1006,-4.0999,-4.0994,-4.1028,-4.1035,-4.1042,-4.1209,0,0,-4.1064,-4.1067,0,0,0,0,0,0,0,0,-4.1001,-4.1011,-4.1065,-4.106,-4.1054,-4.107,-4.1102,-4.1171,-4.1013,-4.1026,-4.0998,-4.0991,-4.105,-4.1055,-4.1074,-4.1211,-4.1212,-4.1065,-4.1069,-4.1072,-4.1074,0,0,0,0,0,0,0,-4.0997,-4.1009,-4.1133,-4.1066,-4.1059,-4.1025,-4.1026,-4.1114,-4.1072,-4.1025,-4.1014,-4.102,-4.1046,-4.1067,-4.1074,-4.1213,-4.1064,-4.1071,-4.1075,-4.1078,-4.1489,-4.1495,0,0,0,0,0,0,-4.1002,-4.1006,-4.1132,-4.1134,-4.1012,-4.1033,-4.1035,-4.1071,-4.1071,-4.1065,-4.1025,-4.1013,-4.1058,-4.1065,-4.1074,-4.127,-4.1072,-4.1078,-4.1083,-4.1482,-4.149,-4.1497,0,0,0,0,0,0,-4.0998,-4.1014,-4.1131,-4.1067,-4.1079,-4.1043,-4.1085,-4.1075,-4.1096,-4.1071,-4.1063,-4.1055,-4.1054,-4.1064,-4.1176,-4.1269,-4.1082,-4.1088,-4.1474,-4.1485,-4.1494,-4.1664,0,0,0,0,0,0,-4.0994,-4.1014,-4.1076,-4.107,-4.1083,-4.1232,-4.1091,-4.108,-4.1109,-4.1093,-4.1097,-4.1091,-4.105,-4.1167,-4.1184,-4.1276,-4.1094,-4.1466,-4.1479,-4.1491,-4.165,-4.1678,-4.1703,0,0,0,0,0,-4.0988,-4.1124,-4.108,-4.1096,-4.116,-4.1238,-4.1246,-4.1194,-4.1117,-4.118,-4.1163,-4.1091,-4.1256,-4.1179,-4.1197,-4.1293,-4.146,-4.1475,-4.149,-4.1638,-4.1673,-4.1702,0,0,0,0,0,0,-4.1143,-4.1122,-4.1073,-4.121,-4.1227,-4.1214,-4.1291,-4.1232,-4.1272,-4.1256,-4.1191,-4.1193,-4.1317,-4.1316,-4.1231,-4.1455,-4.1345,-4.1364,-4.1451,-4.1484,-4.151,-4.1509,-4.11,0,0,0,0,0,-4.1193,-4.1257,-4.1234,-4.1358,-4.1368,-4.1329,-4.1361,-4.1319,-4.1334,-4.1341,-4.1332,-4.1351,-4.1407,-4.1445,-4.1495,-4.1648,-4.1648,-4.1723,-4.1749,-4.1771,-4.1789,-4.1871,-4.1905,-4.1547,-4.1546,-4.1546,0,0,-4.1298,-4.1293,-4.1338,-4.1389,-4.1397,-4.1465,-4.1336,-4.1413,-4.1464,-4.1353,-4.1458,-4.1453,-4.1469,-4.1603,-4.1662,-4.1606,-4.1888,-4.179,-4.1808,-4.1814,-4.189,-4.1924,-4.1954,-4.1557,-4.1555,-4.1553,0,0,-4.1522,-4.1525,-4.1628,-4.1639,-4.1652,-4.1625,-4.165,-4.1646,-4.1638,-4.1742,-4.166,-4.172,-4.1817,-4.1832,-4.1853,-4.2084,-4.202,-4.2102,-4.2241,-4.2322,-4.235,-4.2375,-4.2458,-4.2489,-4.2119,-4.212,-4.212,0,-4.1651,-4.1749,-4.1689,-4.1772,-4.1798,-4.1699,-4.1803,-4.1817,-4.1847,-4.1867,-4.1804,-4.1924,-4.1928,-4.2064,-4.2121,-4.214,-4.2168,-4.2102,-4.235,-4.2375,-4.2397,-4.2476,-4.2507,-4.213,-4.2129,-4.2128,-4.2127,0,-4.1907,-4.1977,-4.2058,-4.2088,-4.2123,-4.2217,-4.2172,-4.2214,-4.2169,-4.2149,-4.2258,-4.2259,-4.2307,-4.2336,-4.2294,-4.2467,-4.2433,-4.2361,-4.225,-4.2442,-4.2515,-4.2545,-4.2144,-4.2141,-4.2138,-4.2135,0,0,-4.2232,-4.2226,-4.2258,-4.227,-4.2277,-4.2331,-4.242,-4.2466,-4.2505,-4.2528,-4.2603,-4.2687,-4.2621,-4.2645,-4.2603,-4.2674,-4.2858,-4.2593,-4.2593,-4.2644,-4.3051,-4.3105,-4.3141,-4.2815,-4.2821,-4.2825,-4.305,0,-4.2453,-4.2604,-4.2553,-4.2707,-4.2772,-4.2679,-4.2757,-4.277,-4.2754,-4.2807,-4.2789,-4.2851,-4.2758,-4.2772,-4.2837,-4.2822,-4.2939,-4.2805,-4.2886,-4.2889,-4.2886,-4.3179,-4.3237,-4.3449,-4.3078,-4.3083,-4.3086,0,-4.2731,-4.2765,-4.2926,-4.2922,-4.2947,-4.3019,-4.3057,-4.3108,-4.3122,-4.3105,-4.3132,-4.3076,-4.3164,-4.3052,-4.3174,-4.3084,-4.3114,-4.3111,-4.3118,-4.3125,-4.3,-4.3195,-4.3516,-4.3548,-4.313,-4.3127,-4.3124,0,-4.2953,-4.3039,-4.3146,-4.316,-4.3158,-4.321,-4.3212,-4.322,-4.3251,-4.3285,-4.3305,-4.335,-4.3375,-4.3412,-4.3369,-4.3291,-4.3499,-4.3382,-4.3489,-4.349,-4.3538,-4.3536,-4.3869,-4.3556,-4.3555,-4.3554,-4.3554,0,-4.3206,-4.3309,-4.3246,-4.3313,-4.3425,-4.3365,-4.3478,-4.347,-4.3478,-4.3542,-4.3464,-4.3526,-4.3465,-4.3523,-4.349,-4.3597,-4.3609,-4.3599,-4.359,-4.3607,-4.3609,-4.3627,-4.3611,-4.3563,-4.3561,-4.3559,-4.3558,0,-4.3474,-4.3436,-4.3547,-4.3536,-4.3535,-4.3619,-4.361,-4.3672,-4.3649,-4.3731,-4.3747,-4.3713,-4.3776,-4.3737,-4.3802,-4.378,-4.392,-4.3889,-4.3915,-4.3908,-4.4017,-4.4008,-4.4375,-4.442,-4.4076,-4.408,-4.4082,0,-4.3638,-4.3715,-4.3712,-4.3749,-4.3755,-4.3816,-4.3847,-4.3791,-4.3827,-4.3849,-4.3908,-4.3964,-4.4006,-4.4112,-4.4094,-4.4143,-4.4114,-4.4239,-4.4121,-4.4136,-4.4117,-4.4114,-4.4122,-4.4263,-4.4267,-4.4271,-4.4273,0,-4.3935,-4.3912,-4.396,-4.4002,-4.4041,-4.4071,-4.4095,-4.413,-4.4073,-4.4118,-4.4181,-4.4214,-4.4279,-4.4336,-4.4377,-4.438,-4.4319,-4.431,-4.4338,-4.4357,-4.4369,-4.4366,-4.3982,-4.4302,-4.43,-4.4297,-4.4296,-4.4295,-4.4157,-4.4221,-4.4229,-4.4285,-4.4296,-4.4321,-4.4378,-4.4362,-4.4413,-4.4461,-4.4425,-4.4501,-4.4513,-4.4562,-4.4573,-4.4632,-4.4582,-4.4621,-4.4631,-4.4643,-4.4658,-4.4359,-4.4639,-4.4638,-4.4638,-4.4637,-4.4636,0,-4.4451,-4.4451,-4.4503,-4.4538,-4.4582,-4.4518,-4.4541,-4.4583,-4.465,-4.4666,-4.4708,-4.4782,-4.4837,-4.4823,-4.4873,-4.4923,-4.4896,-4.4938,-4.4934,-4.4937,-4.47,-4.4672,-4.4959,-4.4959,-4.4959,-4.4959,-4.4959,-4.4959,-4.4609,-4.4714,-4.4692,-4.4803,-4.4802,-4.4874,-4.4893,-4.4916,-4.4928,-4.5013,-4.5058,-4.5048,-4.5052,-4.5102,-4.515,-4.5145,-4.5168,-4.5221,-4.5205,-4.4985,-4.4953,-4.4923,-4.4896,-4.5226,-4.5226,-4.5437,-4.5439,-4.5441]},{"header":{"parameterUnit":"m.s-1","parameterCategory":1,"la1":30.2991,"la2":30.254,"lo1":-89.0895,"lo2":-89.0444,"dy":0.0017,"dx":0.0017,"nx":28,"ny":28,"refTime":"2023-11-13T09:00:00:Z","depth":0,"parameterNumber":3,"parameterNumberName":"V-component_of_WINDS"},"data":[0,0,0,0,0,0,0,0,0,0,0,0,0,0,0,0,0,0,0,0,0,0,0,0,0,0,0,0,0,0,0,0,0,0,0,0,0,0,0,0,0,0,0,0,0,0,0,0,0,0,0,0,0,0,0,0,0,0,-2.8242,-2.8243,0,-2.8266,-2.8266,-2.8266,-2.8231,-2.8229,-2.8228,-2.8227,-2.8249,-2.8251,-2.8253,0,0,0,0,0,0,0,0,0,0,0,0,0,-2.8165,-2.8167,-2.8242,-2.8243,-2.8243,-2.8266,-2.8266,-2.8266,-2.8231,-2.8229,-2.8228,-2.8226,-2.8249,-2.8251,-2.8253,0,0,0,0,0,0,0,0,0,0,0,0,0,-2.8195,-2.8167,-2.8242,-2.8228,-2.8227,-2.8266,-2.8266,-2.8266,-2.8231,-2.8229,-2.8227,-2.8226,-2.8248,-2.8251,-2.8253,-2.8307,0,0,-2.8261,-2.8262,0,0,0,0,0,0,0,0,-2.8193,-2.8197,-2.823,-2.8229,-2.8228,-2.8243,-2.8247,-2.828,-2.8232,-2.823,-2.8227,-2.8225,-2.8249,-2.8251,-2.826,-2.8308,-2.8309,-2.8262,-2.8263,-2.8264,-2.8265,0,0,0,0,0,0,0,-2.8191,-2.8196,-2.8252,-2.823,-2.8229,-2.822,-2.8222,-2.8253,-2.8249,-2.823,-2.8227,-2.823,-2.8248,-2.8257,-2.826,-2.8309,-2.8262,-2.8264,-2.8265,-2.8266,-2.84,-2.8402,0,0,0,0,0,0,-2.8191,-2.8195,-2.8251,-2.8252,-2.8206,-2.8223,-2.8225,-2.824,-2.8249,-2.8248,-2.8232,-2.8229,-2.8254,-2.8257,-2.8261,-2.8323,-2.8264,-2.8267,-2.8268,-2.8398,-2.8401,-2.8403,0,0,0,0,0,0,-2.8189,-2.8196,-2.825,-2.8223,-2.8229,-2.8226,-2.8243,-2.8242,-2.8251,-2.8251,-2.825,-2.8242,-2.8252,-2.8257,-2.8295,-2.8323,-2.8268,-2.827,-2.8396,-2.8399,-2.8402,-2.8448,0,0,0,0,0,0,-2.8187,-2.8196,-2.8217,-2.8224,-2.8231,-2.8285,-2.8245,-2.8243,-2.8256,-2.8252,-2.826,-2.826,-2.8251,-2.8291,-2.8298,-2.8326,-2.8272,-2.8393,-2.8397,-2.8401,-2.8444,-2.8452,-2.8459,0,0,0,0,0,-2.8185,-2.8229,-2.8218,-2.8225,-2.8257,-2.8287,-2.8291,-2.828,-2.8258,-2.8279,-2.8278,-2.8259,-2.8319,-2.8296,-2.8303,-2.8332,-2.8392,-2.8396,-2.84,-2.8441,-2.8451,-2.8459,0,0,0,0,0,0,-2.8226,-2.823,-2.8218,-2.8266,-2.8276,-2.8281,-2.8306,-2.8292,-2.8308,-2.8304,-2.829,-2.8292,-2.8333,-2.8336,-2.831,-2.8383,-2.8351,-2.8357,-2.838,-2.8389,-2.8397,-2.8395,-2.8275,0,0,0,0,0,-2.824,-2.8265,-2.8267,-2.8309,-2.8315,-2.831,-2.8322,-2.8313,-2.8324,-2.8328,-2.833,-2.834,-2.8361,-2.8375,-2.8394,-2.8444,-2.8445,-2.8467,-2.8475,-2.8481,-2.8486,-2.8512,-2.8522,-2.8417,-2.8417,-2.8417,0,0,-2.8271,-2.8276,-2.8292,-2.8317,-2.8324,-2.8349,-2.8314,-2.8342,-2.836,-2.8332,-2.8368,-2.837,-2.838,-2.8424,-2.8444,-2.8428,-2.8515,-2.8487,-2.8492,-2.8494,-2.8517,-2.8527,-2.8536,-2.842,-2.842,-2.8419,0,0,-2.8339,-2.8346,-2.8381,-2.8389,-2.84,-2.8396,-2.8404,-2.8411,-2.8411,-2.8447,-2.8426,-2.8447,-2.8484,-2.8491,-2.85,-2.857,-2.8553,-2.8576,-2.8616,-2.8641,-2.8649,-2.8657,-2.8681,-2.869,-2.8582,-2.8582,-2.8582,0,-2.8375,-2.8413,-2.8401,-2.843,-2.8441,-2.8417,-2.8452,-2.846,-2.8476,-2.8484,-2.8466,-2.8511,-2.8516,-2.8561,-2.8578,-2.8586,-2.8594,-2.8576,-2.8649,-2.8656,-2.8663,-2.8686,-2.8695,-2.8585,-2.8584,-2.8584,-2.8584,0,-2.8457,-2.8483,-2.851,-2.8526,-2.854,-2.8573,-2.8565,-2.858,-2.8569,-2.8567,-2.8604,-2.8609,-2.8628,-2.8638,-2.8628,-2.8681,-2.8671,-2.8652,-2.862,-2.8676,-2.8697,-2.8706,-2.8588,-2.8587,-2.8587,-2.8586,0,0,-2.8553,-2.8561,-2.8571,-2.8578,-2.8588,-2.8607,-2.8637,-2.8657,-2.867,-2.8682,-2.8706,-2.8737,-2.8718,-2.8728,-2.8719,-2.8741,-2.8795,-2.8718,-2.8718,-2.8732,-2.8853,-2.8867,-2.8878,-2.8783,-2.8785,-2.8786,-2.8852,0,-2.862,-2.8673,-2.8662,-2.8714,-2.8737,-2.8713,-2.874,-2.8748,-2.8746,-2.8765,-2.8763,-2.8785,-2.8759,-2.8765,-2.8785,-2.8784,-2.8819,-2.8779,-2.8805,-2.8807,-2.8804,-2.8889,-2.8905,-2.8967,-2.886,-2.8861,-2.8862,0,-2.8707,-2.8721,-2.8775,-2.878,-2.8789,-2.8813,-2.8829,-2.8848,-2.8856,-2.8853,-2.8864,-2.885,-2.8879,-2.8846,-2.8886,-2.8859,-2.8869,-2.887,-2.8872,-2.8874,-2.8838,-2.8893,-2.8986,-2.8995,-2.8875,-2.8874,-2.8873,0,-2.8771,-2.8804,-2.884,-2.8847,-2.8853,-2.887,-2.8874,-2.888,-2.8892,-2.8906,-2.8913,-2.893,-2.8939,-2.8952,-2.8942,-2.892,-2.8983,-2.895,-2.8981,-2.8981,-2.8996,-2.8995,-2.9091,-2.9002,-2.9002,-2.9002,-2.9002,0,-2.8847,-2.8881,-2.8869,-2.8891,-2.8928,-2.8915,-2.8951,-2.8952,-2.8957,-2.8979,-2.8959,-2.8979,-2.8965,-2.8984,-2.8977,-2.901,-2.9015,-2.9013,-2.901,-2.9015,-2.9015,-2.9021,-2.9017,-2.9004,-2.9004,-2.9003,-2.9003,0,-2.8926,-2.8919,-2.8957,-2.8959,-2.8961,-2.8987,-2.8989,-2.901,-2.9006,-2.9033,-2.9038,-2.9033,-2.9054,-2.9045,-2.9068,-2.9063,-2.9105,-2.9097,-2.9103,-2.9101,-2.9132,-2.9129,-2.9236,-2.9249,-2.9152,-2.9152,-2.9153,0,-2.8975,-2.9,-2.9005,-2.9018,-2.9023,-2.9044,-2.9056,-2.9043,-2.9056,-2.9067,-2.9085,-2.9105,-2.912,-2.9154,-2.9152,-2.9168,-2.9161,-2.9197,-2.9163,-2.9166,-2.9161,-2.9159,-2.9162,-2.9204,-2.9205,-2.9206,-2.9206,0,-2.9064,-2.9059,-2.9076,-2.9093,-2.9107,-2.9119,-2.9129,-2.9141,-2.9128,-2.9144,-2.9165,-2.9177,-2.9199,-2.9218,-2.9233,-2.9235,-2.9219,-2.9217,-2.9225,-2.923,-2.9232,-2.9231,-2.9121,-2.9215,-2.9214,-2.9213,-2.9213,-2.9212,-2.9129,-2.915,-2.9156,-2.9176,-2.9182,-2.9192,-2.9211,-2.9209,-2.9227,-2.9244,-2.9235,-2.926,-2.9266,-2.9284,-2.9289,-2.9308,-2.9293,-2.9305,-2.9308,-2.9311,-2.9315,-2.9228,-2.931,-2.931,-2.931,-2.9309,-2.9309,0,-2.9216,-2.9219,-2.9237,-2.9252,-2.9267,-2.925,-2.926,-2.9274,-2.9296,-2.9303,-2.9318,-2.9342,-2.936,-2.9358,-2.9375,-2.939,-2.9383,-2.9395,-2.9393,-2.9394,-2.9327,-2.9318,-2.94,-2.94,-2.94,-2.94,-2.94,-2.94,-2.9263,-2.9297,-2.9293,-2.933,-2.9332,-2.9356,-2.9363,-2.9371,-2.9377,-2.9405,-2.942,-2.9418,-2.9422,-2.9438,-2.9454,-2.9453,-2.9459,-2.9474,-2.9471,-2.9408,-2.9399,-2.939,-2.9382,-2.9476,-2.9476,-2.9536,-2.9537,-2.9537]}]]